Location: W�rzburg
(49.7529°N, 9.8822°E)
Time: 15:10:24
(UTC+01:00)

Tiangong 2 - Visible Passes

Search period start: 21 November 2017 00:00
Search period end: 01 December 2017 00:00
Orbit: 386 x 392 km, 42.8° (Epoch: 20 November)

Date Brightness Start Highest point End Pass type
(mag) Time Alt. Az. Time Alt. Az. Time Alt. Az.
27 Nov 4.1 06:50:48 10° S 06:52:16 13° SSE 06:53:44 10° SE visible
29 Nov 3.8 06:30:12 10° SSW 06:32:21 17° SSE 06:34:31 10° ESE visible
30 Nov 3.9 05:33:28 12° S 05:34:21 13° SSE 05:35:55 10° SE visible
30 Nov 3.3 07:07:56 10° SW 07:10:32 23° S 07:13:08 10° ESE visible
